H1 CPF 2 NER 2023 5 2 9 122 01 glonass131 H2 1301901 9131 39155 2023 5 2 0 0 0 2023 5 5 23 45 0 900 1 1 0 0 0 1 H9 10 0 60066 0.00000 0 2956675.166 23568962.596 -9165370.600 10 0 60066 900.00000 0 2647802.247 22280753.785 -12025674.979 10 0 60066 1800.00000 0 2110479.369 20708037.911 -14650969.161 10 0 60066 2700.00000 0 1319155.716 18906429.988 -16989878.940 10 0 60066 3600.00000 0 259883.705 16937699.108 -18996645.467 10 0 60066 4500.00000 0 -1068829.759 14867232.236 -20632039.005 10 0 60066 5400.00000 0 -2655708.286 12761362.658 -21864139.378 10 0 60066 6300.00000 0 -4476942.004 10684677.506 -22668966.715 10 0 60066 7200.00000 0 -6496965.214 8697419.401 -23030949.660 10 0 60066 8100.00000 0 -8669742.798 6853092.712 -22943221.997 10 0 60066 9000.00000 0 -10940510.512 5196375.557 -22407742.610 10 0 60066 9900.00000 0 -13247894.845 3761424.888 -21435237.585 10 0 60066 10800.00000 0 -15526322.106 2570644.583 -20044967.148 10 0 60066 11700.00000 0 -17708614.423 1633966.062 -18264323.776 10 0 60066 12600.00000 0 -19728662.854 948668.763 -16128271.282 10 0 60066 13500.00000 0 -21524065.113 499744.545 -13678637.762 10 0 60066 14400.00000 0 -23038617.607 260786.989 -10963278.038 10 0 60066 15300.00000 0 -24224558.228 195364.476 -8035123.619 10 0 60066 16200.00000 0 -25044467.501 258815.885 -4951140.062 10 0 60066 17100.00000 0 -25472750.596 400390.445 -1771213.029 10 0 60066 18000.00000 0 -25496640.639 565639.529 1443014.665 10 0 60066 18900.00000 0 -25116684.058 698958.377 4629332.331 10 0 60066 19800.00000 0 -24346690.275 746170.317 7726154.336 10 0 60066 20700.00000 0 -23213150.220 657045.077 10673694.453 10 0 60066 21600.00000 0 -21754149.713 387646.243 13415100.281 10 0 60066 22500.00000 0 -20017824.153 -97589.411 15897527.620 10 0 60066 23400.00000 0 -18060419.162 -824126.551 18073136.076 10 0 60066 24300.00000 0 -15944037.327 -1806030.918 19899988.965 10 0 60066 25200.00000 0 -13734163.338 -3045147.639 21342842.344 10 0 60066 26100.00000 0 -11497068.332 -4530792.458 22373809.970 10 0 60066 27000.00000 0 -9297198.752 -6239969.542 22972892.988 10 0 60066 27900.00000 0 -7194655.455 -8138108.406 23128365.214 10 0 60066 28800.00000 0 -5242865.226 -10180291.719 22837006.970 10 0 60066 29700.00000 0 -3486539.247 -12312925.928 22104182.631 10 0 60066 30600.00000 0 -1960001.851 -14475788.670 20943759.290 10 0 60066 31500.00000 0 -685958.342 -16604371.207 19377866.342 10 0 60066 32400.00000 0 325246.695 -18632421.590 17436498.317 10 0 60066 33300.00000 0 1075848.889 -20494585.151 15156965.986 10 0 60066 34200.00000 0 1580350.736 -22129033.891 12583203.556 10 0 60066 35100.00000 0 1864686.848 -23479975.589 9764942.734 10 0 60066 36000.00000 0 1964901.061 -24499937.245 6756767.358 10 0 60066 36900.00000 0 1925389.519 -25151725.741 3617065.251 10 0 60066 37800.00000 0 1796782.856 -25409981.140 406896.683 10 0 60066 38700.00000 0 1633556.714 -25262254.546 -2811198.745 10 0 60066 39600.00000 0 1491472.307 -24709562.132 -5974432.877 10 0 60066 40500.00000 0 1424956.979 -23766389.109 -9021012.076 10 0 60066 41400.00000 0 1484538.113 -22460141.069 -11891366.395 10 0 60066 42300.00000 0 1714442.076 -20830064.132 -14529338.461 10 0 60066 43200.00000 0 2150463.228 -18925678.592 -16883306.329 10 0 60066 44100.00000 0 2818196.558 -16804792.130 -18907215.964 10 0 60066 45000.00000 0 3731711.741 -14531177.136 -20561500.940 10 0 60066 45900.00000 0 4892727.138 -12172011.349 -21813869.726 10 0 60066 46800.00000 0 6290320.375 -9795191.186 -22639943.980 10 0 60066 47700.00000 0 7901188.597 -7466632.451 -23023734.867 10 0 60066 48600.00000 0 9690447.551 -5247673.192 -22957948.163 10 0 60066 49500.00000 0 11612935.220 -3192688.525 -22444112.872 10 0 60066 50400.00000 0 13614964.043 -1347017.575 -21492531.947 10 0 60066 51300.00000 0 15636446.590 254711.429 -20122057.659 10 0 60066 52200.00000 0 17613303.916 1589789.422 -18359697.730 10 0 60066 53100.00000 0 19480054.102 2648120.075 -16240061.898 10 0 60066 54000.00000 0 21172471.413 3432372.881 -13804661.639 10 0 60066 54900.00000 0 22630204.104 3957593.068 -11101078.580 10 0 60066 55800.00000 0 23799241.328 4250288.589 -8182019.510 10 0 60066 56700.00000 0 24634126.605 4347036.375 -5104277.807 10 0 60066 57600.00000 0 25099826.639 4292669.790 -1927622.515 10 0 60066 58500.00000 0 25173179.186 4138126.262 1286362.682 10 0 60066 59400.00000 0 24843861.680 3938047.580 4475467.896 10 0 60066 60300.00000 0 24114842.502 3748234.848 7578050.243 10 0 60066 61200.00000 0 23002298.275 3623065.328 10534209.540 10 0 60066 62100.00000 0 21535002.436 3612979.182 13286925.101 10 0 60066 63000.00000 0 19753211.842 3762140.553 15783133.481 10 0 60066 63900.00000 0 17707098.226 4106369.686 17974728.338 10 0 60066 64800.00000 0 15454789.420 4671431.339 19819465.402 10 0 60066 65700.00000 0 13060100.492 5471749.960 21281757.286 10 0 60066 66600.00000 0 10590047.158 6509604.749 22333344.834 10 0 60066 67500.00000 0 8112242.105 7774838.353 22953833.701 10 0 60066 68400.00000 0 5692279.453 9245092.349 23131086.914 10 0 60066 69300.00000 0 3391213.036 10886561.513 22861466.286 10 0 60066 70200.00000 0 1263230.558 12655238.062 22149917.710 10 0 60066 71100.00000 0 -646381.871 14498597.176 21009897.636 10 0 60066 72000.00000 0 -2302901.499 16357656.891 19463140.403 10 0 60066 72900.00000 0 -3683388.399 18169329.841 17539268.652 10 0 60066 73800.00000 0 -4777411.469 19868971.548 15275251.656 10 0 60066 74700.00000 0 -5587249.623 21393020.956 12714719.304 10 0 60066 75600.00000 0 -6127558.243 22681623.925 9907142.316 10 0 60066 76500.00000 0 -6424513.152 23681129.887 6906892.279 10 0 60066 77400.00000 0 -6514466.398 24346355.897 3772198.011 10 0 60066 78300.00000 0 -6442169.215 24642520.992 564017.520 10 0 60066 79200.00000 0 -6258636.509 24546766.793 -2655152.720 10 0 60066 80100.00000 0 -6018743.277 24049197.160 -5822507.348 10 0 60066 81000.00000 0 -5778655.751 23153389.906 -8876175.232 10 0 60066 81900.00000 0 -5593207.910 21876356.063 -11756449.947 10 0 60066 82800.00000 0 -5513337.122 20247946.100 -14406981.218 10 0 60066 83700.00000 0 -5583690.578 18309726.550 -16775901.560 10 0 60066 84600.00000 0 -5840507.071 16113373.732 -18816863.667 10 0 60066 85500.00000 0 -6309866.844 13718652.400 -20489966.068 10 0 60067 0.00000 0 -7006386.048 11191065.543 -21762547.129 10 0 60067 900.00000 0 -7932413.350 8599274.132 -22609831.334 10 0 60067 1800.00000 0 -9077762.784 6012400.238 -23015412.995 10 0 60067 2700.00000 0 -10419995.635 3497323.684 -22971570.304 10 0 60067 3600.00000 0 -11925238.174 1116089.984 -22479402.427 10 0 60067 4500.00000 0 -13549499.994 -1076462.635 -21548788.832 10 0 60067 5400.00000 0 -15240435.888 -3034757.946 -20198173.043 10 0 60067 6300.00000 0 -16939475.415 -4724133.399 -18454176.828 10 0 60067 7200.00000 0 -18584228.935 -6122021.753 -16351054.263 10 0 60067 8100.00000 0 -20111067.565 -7218616.117 -13929998.301 10 0 60067 9000.00000 0 -21457767.731 -8016994.106 -11238315.229 10 0 60067 9900.00000 0 -22566108.863 -8532699.743 -8328484.801 10 0 60067 10800.00000 0 -23384315.500 -8792804.653 -5257125.794 10 0 60067 11700.00000 0 -23869242.241 -8834491.642 -2083888.140 10 0 60067 12600.00000 0 -23988211.422 -8703223.401 1129706.136 10 0 60067 13500.00000 0 -23720428.390 -8450575.776 4321450.516 10 0 60067 14400.00000 0 -23057917.251 -8131828.330 7429647.450 10 0 60067 15300.00000 0 -22005939.992 -7803414.166 10394285.369 10 0 60067 16200.00000 0 -20582883.306 -7520336.049 13158177.845 10 0 60067 17100.00000 0 -18819619.111 -7333656.451 15668044.618 10 0 60067 18000.00000 0 -16758366.039 -7288165.472 17875515.660 10 0 60067 18900.00000 0 -14451099.100 -7420322.838 19738041.130 10 0 60067 19800.00000 0 -11957572.545 -7756558.616 21219691.915 10 0 60067 20700.00000 0 -9343036.266 -8312002.649 22291837.305 10 0 60067 21600.00000 0 -6675737.960 -9089695.242 22933688.443 10 0 60067 22500.00000 0 -4024311.755 -10080312.392 23132698.179 10 0 60067 23400.00000 0 -1455158.509 -11262418.149 22884810.065 10 0 60067 24300.00000 0 970076.499 -12603235.560 22194551.435 10 0 60067 25200.00000 0 3196826.384 -14059906.702 21074967.724 10 0 60067 26100.00000 0 5179631.298 -15581192.349 19547397.583 10 0 60067 27000.00000 0 6883789.648 -17109543.487 17641090.859 10 0 60067 27900.00000 0 8286563.266 -18583461.203 15392674.180 10 0 60067 28800.00000 0 9377885.633 -19940048.610 12845471.700 10 0 60067 29700.00000 0 10160542.265 -21117649.594 10048691.470 10 0 60067 30600.00000 0 10649814.056 -22058464.284 7056490.888 10 0 60067 31500.00000 0 10872596.766 -22711030.873 3926937.600 10 0 60067 32400.00000 0 10866032.172 -23032467.847 720884.998 10 0 60067 33300.00000 0 10675707.520 -22990379.764 -2499216.070 10 0 60067 34200.00000 0 10353498.986 -22564343.165 -5670545.624 10 0 60067 35100.00000 0 9955150.832 -21746906.592 -8731157.685 10 0 60067 36000.00000 0 9537694.072 -20544059.244 -11621212.010 10 0 60067 36900.00000 0 9156816.105 -18975145.587 -14284168.074 10 0 60067 37800.00000 0 8864295.380 -17072227.343 -16667915.438 10 0 60067 38700.00000 0 8705612.731 -14878918.321 -18725816.000 10 0 60067 39600.00000 0 8717843.462 -12448740.724 -20417635.525 10 0 60067 40500.00000 0 8927921.995 -9843072.398 -21710344.498 10 0 60067 41400.00000 0 9351354.545 -7128772.268 -22578771.470 10 0 60067 42300.00000 0 9991435.515 -4375585.045 -23006095.506 10 0 60067 43200.00000 0 10839001.192 -1653435.516 -22984168.163 10 0 60067 44100.00000 0 11872730.785 970272.968 -22513659.324 10 0 60067 45000.00000 0 13059981.063 3433241.873 -21604025.136 10 0 60067 45900.00000 0 14358117.792 5680634.539 -20273300.181 10 0 60067 46800.00000 0 15716286.006 7667109.075 -18547719.699 10 0 60067 47700.00000 0 17077542.507 9358443.631 -16461181.162 10 0 60067 48600.00000 0 18381259.040 10732688.535 -14054557.687 10 0 60067 49500.00000 0 19565693.531 11780800.242 -11374878.508 10 0 60067 50400.00000 0 20570620.298 12506734.220 -8474394.248 10 0 60067 51300.00000 0 21339908.343 12926996.791 -5409546.622 10 0 60067 52200.00000 0 21823939.766 13069678.615 -2239863.677 10 0 60067 53100.00000 0 21981767.667 12973013.890 973197.228 10 0 60067 54000.00000 0 21782924.507 12683528.700 4167436.086 10 0 60067 54900.00000 0 21208806.879 12253858.427 7281103.863 10 0 60067 55800.00000 0 20253580.581 11740327.109 10254080.744 10 0 60067 56700.00000 0 18924569.911 11200390.732 13029017.555 10 0 60067 57600.00000 0 17242116.200 10690051.207 15552420.048 10 0 60067 58500.00000 0 15238912.300 10261348.330 17775657.110 10 0 60067 59400.00000 0 12958840.670 9960033.213 19655875.683 10 0 60067 60300.00000 0 10455362.572 9823518.861 21156806.993 10 0 60067 61200.00000 0 7789523.602 9879192.066 22249450.537 10 0 60067 62100.00000 0 5027655.962 10143156.045 22912624.347 10 0 60067 63000.00000 0 2238869.789 10619455.918 23133372.092 10 0 60067 63900.00000 0 -507565.629 11299819.750 22907219.599 10 0 60067 64800.00000 0 -3144845.406 12163927.196 22238275.681 10 0 60067 65700.00000 0 -5611151.490 13180196.579 21139174.258 10 0 60067 66600.00000 0 -7851971.569 14307060.165 19630857.248 10 0 60067 67500.00000 0 -9822119.651 15494677.299 17742200.163 10 0 60067 68400.00000 0 -11487374.922 16687016.724 15509484.986 10 0 60067 69300.00000 0 -12825670.281 17824223.525 12975727.764 10 0 60067 70200.00000 0 -13827779.952 18845173.389 10189871.246 10 0 60067 71100.00000 0 -14497475.816 19690108.040 7205855.822 10 0 60067 72000.00000 0 -14851144.061 20303240.981 4081585.048 10 0 60067 72900.00000 0 -14916876.474 20635222.771 877804.743 10 0 60067 73800.00000 0 -14733073.172 20645359.835 -2343082.815 10 0 60067 74700.00000 0 -14346614.897 20303490.311 -5518245.933 10 0 60067 75600.00000 0 -13810682.008 19591434.410 -8585666.582 10 0 60067 76500.00000 0 -13182313.219 18503954.554 -11485373.363 10 0 60067 77400.00000 0 -12519808.980 17049181.450 -14160637.959 10 0 60067 78300.00000 0 -11880091.723 15248485.385 -16559109.189 10 0 60067 79200.00000 0 -11316137.376 13135796.092 -18633860.078 10 0 60067 80100.00000 0 -10874589.663 10756398.716 -20344325.243 10 0 60067 81000.00000 0 -10593660.740 8165256.231 -21657108.487 10 0 60067 81900.00000 0 -10501409.062 5424929.283 -22546643.631 10 0 60067 82800.00000 0 -10614468.727 2603181.833 -22995694.995 10 0 60067 83700.00000 0 -10937284.592 -229625.660 -22995687.792 10 0 60067 84600.00000 0 -11461885.212 -3003245.016 -22546862.550 10 0 60067 85500.00000 0 -12168202.188 -5650236.592 -21658251.643 10 0 60068 0.00000 0 -13024920.682 -8108539.552 -20347480.006 10 0 60068 900.00000 0 -13990823.645 -10323810.151 -18640394.896 10 0 60068 1800.00000 0 -15016569.574 -12251428.100 -16570535.734 10 0 60068 2700.00000 0 -16046828.194 -13858093.353 -14178453.948 10 0 60068 3600.00000 0 -17022680.959 -15122945.938 -11510899.657 10 0 60068 4500.00000 0 -17884184.207 -16038166.550 -8619892.133 10 0 60068 5400.00000 0 -18572986.083 -16609036.282 -5561693.711 10 0 60068 6300.00000 0 -19034886.861 -16853456.803 -2395708.179 10 0 60068 7200.00000 0 -19222235.443 -16800954.755 816674.193 10 0 60068 8100.00000 0 -19096062.329 -16491215.390 4013262.367 10 0 60068 9000.00000 0 -18627860.965 -15972209.483 7132258.310 10 0 60068 9900.00000 0 -17800944.440 -15297993.881 10113436.460 10 0 60068 10800.00000 0 -16611322.380 -14526278.701 12899287.394 10 0 60068 11700.00000 0 -15068062.738 -13715863.089 15436105.291 10 0 60068 12600.00000 0 -13193124.256 -12924046.103 17675000.234 10 0 60068 13500.00000 0 -11020666.811 -12204119.615 19572818.022 10 0 60068 14400.00000 0 -8595867.674 -11603046.280 21092952.021 10 0 60068 15300.00000 0 -5973291.491 -11159417.792 22206033.399 10 0 60068 16200.00000 0 -3214879.391 -10901777.086 22890488.188 10 0 60068 17100.00000 0 -387637.755 -10847373.440 23132951.597 10 0 60068 18000.00000 0 2438880.760 -11001402.080 22928532.096 10 0 60068 18900.00000 0 5195202.964 -11356760.489 22280919.978 10 0 60068 19800.00000 0 7814561.942 -11894332.886 21202337.333 10 0 60068 20700.00000 0 10235418.673 -12583793.021 19713328.727 10 0 60068 21600.00000 0 12403775.727 -13384894.257 17842394.415 10 0 60068 22500.00000 0 14275187.947 -14249195.702 15625470.513 10 0 60068 23400.00000 0 15816386.490 -15122154.698 13105263.441 10 0 60068 24300.00000 0 17006447.761 -15945500.034 10330448.789 10 0 60068 25200.00000 0 17837456.962 -16659787.620 7354747.779 10 0 60068 26100.00000 0 18314636.532 -17207031.508 4235897.419 10 0 60068 27000.00000 0 18455932.124 -17533298.833 1034533.272 10 0 60068 27900.00000 0 18291071.689 -17591157.567 -2186993.802 10 0 60068 28800.00000 0 17860135.980 -17341871.172 -5365843.305 10 0 60068 29700.00000 0 17211700.171 -16757244.271 -8439928.053 10 0 60068 30600.00000 0 16400625.291 -15821037.772 -11349148.292 10 0 60068 31500.00000 0 15485593.885 -14529890.137 -14036590.568 10 0 60068 32400.00000 0 14526495.941 -12893702.669 -16449665.430 10 0 60068 33300.00000 0 13581777.962 -10935469.988 -18541159.286 10 0 60068 34200.00000 0 12705869.914 -8690561.006 -20270177.601 10 0 60068 35100.00000 0 11946801.379 -6205479.812 -21602959.210 10 0 60068 36000.00000 0 11344109.846 -3536158.420 -22513544.584 10 0 60068 36900.00000 0 10927131.100 -745853.753 -22984284.328 10 0 60068 37800.00000 0 10713744.660 2097261.872 -23006177.965 10 0 60068 38700.00000 0 10709627.174 4922714.526 -22579036.952 10 0 60068 39600.00000 0 10908044.298 7660436.054 -21711469.811 10 0 60068 40500.00000 0 11290188.173 10243450.986 -20420691.126 10 0 60068 41400.00000 0 11826044.018 12610430.383 -18732159.889 10 0 60068 42300.00000 0 12475746.699 14708006.273 -16679056.169 10 0 60068 43200.00000 0 13191367.415 16492751.229 -14301608.291 10 0 60068 44100.00000 0 13919052.704 17932742.434 -11646285.499 10 0 60068 45000.00000 0 14601423.469 19008647.533 -8764873.626 10 0 60068 45900.00000 0 15180131.427 19714290.206 -5713453.230 10 0 60068 46800.00000 0 15598464.426 20056675.382 -2551301.169 10 0 60068 47700.00000 0 15803890.781 20055476.655 660262.245 10 0 60068 48600.00000 0 15750436.110 19742010.790 3859057.939 10 0 60068 49500.00000 0 15400793.840 19157745.111 6983241.917 10 0 60068 50400.00000 0 14728082.150 18352402.470 9972485.868 10 0 60068 51300.00000 0 13717175.262 17381744.411 12769122.983 10 0 60068 52200.00000 0 12365554.714 16305125.696 15319238.585 10 0 60068 53100.00000 0 10683646.072 15182921.993 17573686.467 10 0 60068 54000.00000 0 8694627.444 14073937.012 19489013.573 10 0 60068 54900.00000 0 6433717.427 13032895.643 21028277.434 10 0 60068 55800.00000 0 3946970.953 12108125.749 22161742.619 10 0 60068 56700.00000 0 1289631.059 11339523.355 22867444.546 10 0 60068 57600.00000 0 -1475897.732 10756884.483 23131610.958 10 0 60068 58500.00000 0 -4282373.568 10378672.129 22948933.494 10 0 60068 59400.00000 0 -7060246.077 10211269.527 22322683.949 10 0 60068 60300.00000 0 -9740288.418 10248751.373 21264672.047 10 0 60068 61200.00000 0 -12256226.388 10473183.882 19795043.898 10 0 60068 62100.00000 0 -14547257.859 10855443.135 17941922.842 10 0 60068 63000.00000 0 -16560359.354 11356519.807 15740896.979 10 0 60068 63900.00000 0 -18252284.284 11929258.131 13234360.525 10 0 60068 64800.00000 0 -19591169.142 12520458.325 10470719.046 10 0 60068 65700.00000 0 -20557679.302 13073255.847 7503471.531 10 0 60068 66600.00000 0 -21145644.590 13529678.148 4390185.305 10 0 60068 67500.00000 0 -21362155.799 13833271.058 1191382.533 10 0 60068 68400.00000 0 -21227115.912 13931682.793 -2030640.410 10 0 60068 69300.00000 0 -20772263.102 13779094.252 -5213037.183 10 0 60068 70200.00000 0 -20039705.470 13338389.987 -8293654.263 10 0 60068 71100.00000 0 -19080028.910 12582974.569 -11212266.189 10 0 60068 72000.00000 0 -17950058.463 11498153.940 -13911776.796 10 0 60068 72900.00000 0 -16710368.997 10082019.898 -16339360.516 10 0 60068 73800.00000 0 -15422652.291 8345797.316 -18447518.976 10 0 60068 74700.00000 0 -14147054.125 6313637.150 -20195029.955 10 0 60068 75600.00000 0 -12939596.245 4021862.419 -21547768.390 10 0 60068 76500.00000 0 -11849794.288 1517698.273 -22479382.066 10 0 60068 77400.00000 0 -10918573.902 -1142460.340 -22971808.128 10 0 60068 78300.00000 0 -10176573.956 -3895169.931 -23015620.273 10 0 60068 79200.00000 0 -9642908.540 -6672358.574 -22610200.362 10 0 60068 80100.00000 0 -9324439.135 -9403942.219 -21763732.177 10 0 60068 81000.00000 0 -9215586.047 -12020526.613 -20493018.857 10 0 60068 81900.00000 0 -9298684.729 -14456081.175 -18823129.353 10 0 60068 82800.00000 0 -9544869.173 -16650472.866 -16786882.695 10 0 60068 83700.00000 0 -9915442.146 -18551754.840 -14424182.106 10 0 60068 84600.00000 0 -10363671.506 -20118115.599 -11781213.840 10 0 60068 85500.00000 0 -10836934.225 -21319409.311 -8909528.108 10 0 60069 0.00000 0 -11279115.493 -22138206.032 -5865021.766 10 0 60069 900.00000 0 -11633160.527 -22570321.505 -2706842.019 10 0 60069 1800.00000 0 -11843670.204 -22624806.743 503762.675 10 0 60069 2700.00000 0 -11859431.961 -22323402.667 3704627.343 10 0 60069 3600.00000 0 -11635779.501 -21699484.417 6833864.162 10 0 60069 4500.00000 0 -11136683.467 -20796542.435 9831044.205 10 0 60069 5400.00000 0 -10336486.660 -19666265.430 12638345.424 10 0 60069 6300.00000 0 -9221212.482 -18366306.098 15201646.394 10 0 60069 7200.00000 0 -7789393.007 -16957822.843 17471546.647 10 0 60069 8100.00000 0 -6052382.755 -15502899.149 19404296.157 10 0 60069 9000.00000 0 -4034145.087 -14061946.636 20962618.302 10 0 60069 9900.00000 0 -1770519.269 -12691198.034 22116412.483 10 0 60069 10800.00000 0 692002.943 -11440392.314 22843324.626 10 0 60069 11700.00000 0 3297942.864 -10350746.338 23129175.800 10 0 60069 12600.00000 0 5984876.511 -9453295.896 22968241.274 10 0 60069 13500.00000 0 8685771.067 -8767674.225 22363374.469 10 0 60069 14400.00000 0 11331522.818 -8301378.709 21325972.535 10 0 60069 15300.00000 0 13853594.522 -8049556.958 19875782.605 10 0 60069 16200.00000 0 16186645.475 -7995322.540 18040550.271 10 0 60069 17100.00000 0 18271046.914 -8110589.060 15855514.458 10 0 60069 18000.00000 0 20055179.006 -8357389.860 13362755.706 10 0 60069 18900.00000 0 21497413.644 -8689630.154 10610407.732 10 0 60069 19800.00000 0 22567699.272 -9055199.786 7651745.136 10 0 60069 20700.00000 0 23248679.605 -9398358.893 4544163.072 10 0 60069 21600.00000 0 23536297.123 -9662296.182 1348067.551 10 0 60069 22500.00000 0 23439853.537 -9791751.190 -1874302.486 10 0 60069 23400.00000 0 22981522.401 -9735588.016 -5060097.901 10 0 60069 24300.00000 0 22195332.591 -9449209.164 -8147101.863 10 0 60069 25200.00000 0 21125664.436 -8896704.147 -11074966.106 10 0 60069 26100.00000 0 19825321.689 -8052638.415 -13786414.464 10 0 60069 27000.00000 0 18353261.362 -6903403.309 -16228387.710 10 0 60069 27900.00000 0 16772078.637 -5448066.708 -18353104.856 10 0 60069 28800.00000 0 15145354.954 -3698685.648 -20119017.888 10 0 60069 29700.00000 0 13534983.416 -1680065.778 -21491639.426 10 0 60069 30600.00000 0 11998586.454 571023.412 -22444225.849 10 0 60069 31500.00000 0 10587136.478 3007144.877 -22958301.794 10 0 60069 32400.00000 0 9342880.953 5571946.914 -23024015.740 10 0 60069 33300.00000 0 8297659.672 8202298.221 -22640320.222 10 0 60069 34200.00000 0 7471684.587 10830714.321 -21814974.184 10 0 60069 35100.00000 0 6872832.101 13387972.485 -20564368.878 10 0 60069 36000.00000 0 6496475.407 15805804.679 -18913182.421 10 0 60069 36900.00000 0 6325861.048 18019555.251 -16893871.658 10 0 60069 37800.00000 0 6333010.610 19970692.291 -14546013.237 10 0 60069 38700.00000 0 6480106.187 21609068.379 -11915508.599 10 0 60069 39600.00000 0 6721298.043 22894837.692 -9053670.190 10 0 60069 40500.00000 0 7004855.519 23799951.461 -6016208.171 10 0 60069 41400.00000 0 7275568.322 24309171.970 -2862138.480 10 0 60069 42300.00000 0 7477295.594 24420565.735 347365.699 10 0 60069 43200.00000 0 7555554.711 24145458.364 3550156.521 10 0 60069 44100.00000 0 7460040.937 23507856.008 6684305.391 10 0 60069 45000.00000 0 7146972.683 22543360.084 9689285.782 10 0 60069 45900.00000 0 6581164.995 21297622.566 12507123.311 10 0 60069 46800.00000 0 5737745.630 19824407.395 15083492.542 10 0 60069 47700.00000 0 4603443.123 18183339.150 17368741.282 10 0 60069 48600.00000 0 3177393.874 16437432.154 19318824.840 10 0 60069 49500.00000 0 1471434.938 14650501.550 20896134.490 10 0 60069 50400.00000 0 -490130.112 12884562.139 22070206.207 10 0 60069 51300.00000 0 -2671283.721 11197320.882 22818297.829 10 0 60069 52200.00000 0 -5025536.092 9639865.001 23125824.766 10 0 60069 53100.00000 0 -7497607.302 8254639.752 22986646.455 10 0 60069 54000.00000 0 -10025483.290 7073798.390 22403197.973 10 0 60069 54900.00000 0 -12542763.901 6117992.092 21386463.364 10 0 60069 55800.00000 0 -14981208.970 5395650.196 19955789.648 10 0 60069 56700.00000 0 -17273379.691 4902781.424 18138542.947 10 0 60069 57600.00000 0 -19355267.851 4623305.801 15969610.741 10 0 60069 58500.00000 0 -21168804.805 4529905.191 13490757.140 10 0 60069 59400.00000 0 -22664146.011 4585358.822 10749840.889 10 0 60069 60300.00000 0 -23801635.046 4744309.599 7799908.820 10 0 60069 61200.00000 0 -24553363.320 4955388.293 4698180.422 10 0 60069 62100.00000 0 -24904257.887 5163606.805 1504942.044 10 0 60069 63000.00000 0 -24852649.036 5312919.290 -1717628.246 10 0 60069 63900.00000 0 -24410291.114 5348841.744 -4906681.793 10 0 60069 64800.00000 0 -23601833.381 5221017.144 -7999941.557 10 0 60069 65700.00000 0 -22463761.412 4885614.753 -10936939.334 10 0 60069 66600.00000 0 -21042852.750 4307458.634 -13660221.545 10 0 60069 67500.00000 0 -19394211.891 3461791.743 -16116497.572 10 0 60069 68400.00000 0 -17578968.240 2335597.523 -18257705.695 10 0 60069 69300.00000 0 -15661735.616 928420.103 -20041973.522 10 0 60069 70200.00000 0 -13707942.315 -747353.901 -21434452.275 10 0 60069 71100.00000 0 -11781146.235 -2666765.469 -22408007.301 10 0 60069 72000.00000 0 -9940450.037 -4793094.491 -22943750.576 10 0 60069 72900.00000 0 -8238126.470 -7079178.133 -23031404.688 10 0 60069 73800.00000 0 -6717554.450 -9469180.181 -22669491.702 10 0 60069 74700.00000 0 -5411552.467 -11900735.906 -21865344.176 10 0 60069 75600.00000 0 -4341178.267 -14307381.185 -20634939.577 10 0 60069 76500.00000 0 -3515043.243 -16621162.796 -19002563.019 10 0 60069 77400.00000 0 -2929167.604 -18775319.563 -17000306.801 10 0 60069 78300.00000 0 -2567379.094 -20706921.601 -14667418.510 10 0 60069 79200.00000 0 -2402234.884 -22359357.373 -12049512.254 10 0 60069 80100.00000 0 -2396424.234 -23684565.282 -9197660.221 10 0 60069 81000.00000 0 -2504589.531 -24644917.997 -6167383.739 10 0 60069 81900.00000 0 -2675486.216 -25214682.796 -3017564.649 10 0 60069 82800.00000 0 -2854388.461 -25380999.426 190701.036 10 0 60069 83700.00000 0 -2985638.022 -25144337.429 3395284.622 10 0 60069 84600.00000 0 -3015228.423 -24518416.591 6534218.658 10 0 60069 85500.00000 0 -2893316.050 -23529596.401 9546880.845 99